[[{"header":{"parameterUnit":"m.s-1","parameterCategory":1,"la1":30.2991,"la2":30.254,"lo1":-89.0895,"lo2":-89.0444,"dy":0.0017,"dx":0.0017,"nx":28,"ny":28,"refTime":"2024-07-04T09:00:00:Z","depth":0,"parameterNumber":2,"parameterNumberName":"U-component_of_WINDS"},"data":[0,0,0,0,0,0,0,0,0,0,0,0,0,0,0,0,0,0,0,0,0,0,0,0,0,0,0,0,0,0,0,0,0,0,0,0,0,0,0,0,0,0,0,0,0,0,0,0,0,0,0,0,0,0,0,0,0,0,2.6891,2.6892,0,2.6976,2.6977,2.6978,2.6992,2.6991,2.699,2.6989,2.7078,2.7081,2.7084,0,0,0,0,0,0,0,0,0,0,0,0,0,2.6744,2.6746,2.6891,2.6892,2.6893,2.6976,2.6977,2.6978,2.6992,2.6991,2.699,2.6989,2.7077,2.708,2.7084,0,0,0,0,0,0,0,0,0,0,0,0,0,2.6816,2.6747,2.6891,2.691,2.6912,2.6975,2.6977,2.6978,2.6992,2.6991,2.699,2.6989,2.7076,2.708,2.7085,2.7135,0,0,2.7098,2.71,0,0,0,0,0,0,0,0,2.6812,2.6821,2.6906,2.6909,2.6912,2.6972,2.6957,2.7031,2.6992,2.6962,2.6989,2.6988,2.7044,2.7051,2.7069,2.7139,2.7143,2.7099,2.7102,2.7104,2.7105,0,0,0,0,0,0,0,2.6807,2.6818,2.6925,2.6907,2.6911,2.6915,2.6924,2.6971,2.7008,2.6964,2.6966,2.6975,2.7045,2.7065,2.7071,2.7144,2.7099,2.7103,2.7106,2.7107,2.7262,2.7263,0,0,0,0,0,0,2.6798,2.6814,2.6922,2.6927,2.6858,2.6919,2.6929,2.6954,2.7007,2.7015,2.6976,2.6976,2.7057,2.7066,2.7074,2.7138,2.7104,2.7108,2.711,2.726,2.7262,2.7264,0,0,0,0,0,0,2.6795,2.6808,2.6919,2.6871,2.6885,2.6922,2.695,2.6956,2.6976,2.7016,2.7023,2.6989,2.7057,2.7068,2.712,2.7141,2.711,2.7114,2.7259,2.7261,2.7263,2.7265,0,0,0,0,0,0,2.6791,2.6806,2.6825,2.6871,2.6888,2.6962,2.6952,2.6958,2.6983,2.6984,2.7031,2.7037,2.7057,2.7113,2.7125,2.7147,2.7118,2.7257,2.726,2.7262,2.7263,2.7267,2.727,0,0,0,0,0,2.6785,2.6822,2.6826,2.6839,2.6912,2.6963,2.6973,2.6994,2.6985,2.7005,2.7031,2.7036,2.7137,2.7118,2.7131,2.7156,2.7256,2.7259,2.7262,2.7262,2.7266,2.727,0,0,0,0,0,0,2.6778,2.6829,2.6833,2.6886,2.692,2.6965,2.6991,2.6998,2.7035,2.7034,2.7059,2.707,2.7121,2.7143,2.7122,2.7208,2.7196,2.7202,2.7191,2.7196,2.7199,2.7193,2.7121,0,0,0,0,0,2.6783,2.6819,2.6862,2.6904,2.6921,2.6953,2.6976,2.699,2.7026,2.7041,2.7071,2.7107,2.7147,2.7173,2.7212,2.7267,2.7278,2.729,2.7293,2.7296,2.7301,2.7334,2.734,2.7274,2.7274,2.7274,0,0,2.6792,2.6825,2.6846,2.6904,2.6932,2.697,2.6965,2.7005,2.7035,2.7047,2.7098,2.7122,2.7164,2.7218,2.7243,2.7238,2.7322,2.73,2.7302,2.7305,2.7337,2.7344,2.7349,2.7276,2.7275,2.7275,0,0,2.683,2.6857,2.6897,2.6925,2.6968,2.6989,2.6998,2.7043,2.7059,2.7111,2.7121,2.7157,2.7225,2.7255,2.7279,2.733,2.7336,2.7342,2.736,2.7391,2.7396,2.7401,2.742,2.7427,2.7346,2.7346,2.7346,0,2.6837,2.6894,2.6916,2.6957,2.6982,2.6995,2.7036,2.7063,2.7116,2.7134,2.7128,2.7214,2.7243,2.7306,2.7318,2.7337,2.735,2.7336,2.7394,2.7399,2.7403,2.7422,2.7429,2.7347,2.7347,2.7347,2.7347,0,2.6902,2.6942,2.6968,2.702,2.7048,2.7089,2.7118,2.7144,2.7156,2.7178,2.7232,2.7267,2.7314,2.733,2.7341,2.7394,2.739,2.7388,2.7377,2.741,2.7428,2.7435,2.7347,2.7347,2.7347,2.7347,0,0,2.6937,2.7,2.7009,2.7034,2.7082,2.7114,2.7156,2.7202,2.7225,2.7261,2.7298,2.7356,2.7355,2.7383,2.7398,2.7425,2.7465,2.7421,2.7422,2.7428,2.7528,2.7529,2.7537,2.7469,2.7471,2.7472,2.7524,0,2.6981,2.7055,2.7076,2.7139,2.7177,2.7191,2.7228,2.7262,2.7284,2.7321,2.7346,2.7387,2.7382,2.7399,2.7427,2.7454,2.7485,2.7451,2.7505,2.7507,2.7494,2.7546,2.7548,2.7595,2.7531,2.7533,2.7534,0,2.7042,2.708,2.7147,2.7192,2.7209,2.7241,2.7286,2.732,2.736,2.7374,2.7405,2.7419,2.7464,2.745,2.7514,2.749,2.7513,2.753,2.7533,2.7539,2.7522,2.7555,2.7611,2.7618,2.7545,2.7544,2.7543,0,2.7062,2.713,2.7179,2.7199,2.7253,2.7275,2.7299,2.7338,2.7364,2.7404,2.7422,2.7466,2.749,2.7525,2.755,2.7537,2.7613,2.76,2.7627,2.7626,2.7642,2.7641,2.7704,2.7656,2.7656,2.7656,2.7656,0,2.711,2.715,2.7189,2.7219,2.7266,2.729,2.7336,2.736,2.7395,2.7431,2.7446,2.7479,2.751,2.7549,2.7569,2.762,2.763,2.7644,2.7649,2.7643,2.7642,2.7659,2.7657,2.7658,2.7657,2.7657,2.7657,0,2.714,2.7168,2.7222,2.7269,2.7281,2.7314,2.7354,2.7385,2.7408,2.7453,2.7466,2.7502,2.7548,2.7577,2.7635,2.7649,2.7705,2.7708,2.7691,2.7694,2.772,2.7717,2.7796,2.7808,2.7752,2.7752,2.7753,0,2.7169,2.7201,2.7251,2.7276,2.7299,2.7339,2.7367,2.7393,2.7421,2.747,2.7495,2.7542,2.7581,2.7654,2.7687,2.7732,2.7737,2.7762,2.7744,2.7738,2.7739,2.7737,2.7741,2.7765,2.7765,2.7766,2.7766,0,2.7218,2.723,2.7269,2.7313,2.7346,2.7382,2.7418,2.7438,2.747,2.7501,2.7548,2.7579,2.7639,2.7686,2.7734,2.7759,2.7769,2.7771,2.778,2.7775,2.7764,2.7772,2.77,2.777,2.7769,2.7769,2.7769,2.7769,2.7249,2.7279,2.7319,2.7362,2.7392,2.7426,2.7457,2.7484,2.7524,2.7574,2.7587,2.7637,2.7678,2.7744,2.777,2.7811,2.7807,2.782,2.7823,2.7826,2.7827,2.7757,2.7819,2.7819,2.7819,2.7819,2.7819,0,2.73,2.7327,2.7366,2.7416,2.7451,2.7456,2.7496,2.7525,2.7569,2.7605,2.7644,2.7699,2.7745,2.7781,2.7829,2.7854,2.7859,2.7866,2.7864,2.787,2.7827,2.7815,2.786,2.786,2.786,2.786,2.786,2.786,2.733,2.7381,2.7398,2.7464,2.749,2.7539,2.7562,2.7594,2.7623,2.7684,2.7722,2.7745,2.7783,2.7833,2.7876,2.7886,2.7903,2.7908,2.7919,2.7878,2.7873,2.7869,2.7858,2.7912,2.7912,2.796,2.796,2.796]},{"header":{"parameterUnit":"m.s-1","parameterCategory":1,"la1":30.2991,"la2":30.254,"lo1":-89.0895,"lo2":-89.0444,"dy":0.0017,"dx":0.0017,"nx":28,"ny":28,"refTime":"2024-07-04T09:00:00:Z","depth":0,"parameterNumber":3,"parameterNumberName":"V-component_of_WINDS"},"data":[0,0,0,0,0,0,0,0,0,0,0,0,0,0,0,0,0,0,0,0,0,0,0,0,0,0,0,0,0,0,0,0,0,0,0,0,0,0,0,0,0,0,0,0,0,0,0,0,0,0,0,0,0,0,0,0,0,0,-1.3983,-1.3984,0,-1.4062,-1.4063,-1.4064,-1.4101,-1.4101,-1.4101,-1.4101,-1.4181,-1.4183,-1.4185,0,0,0,0,0,0,0,0,0,0,0,0,0,-1.3868,-1.3869,-1.3983,-1.3984,-1.3985,-1.4062,-1.4063,-1.4064,-1.4101,-1.4101,-1.4101,-1.4101,-1.418,-1.4183,-1.4185,0,0,0,0,0,0,0,0,0,0,0,0,0,-1.3929,-1.387,-1.3983,-1.4013,-1.4017,-1.4061,-1.4063,-1.4064,-1.4101,-1.4101,-1.4101,-1.4101,-1.418,-1.4183,-1.4186,-1.4206,0,0,-1.4196,-1.4197,0,0,0,0,0,0,0,0,-1.3925,-1.3933,-1.4008,-1.4011,-1.4015,-1.4072,-1.4051,-1.4112,-1.4101,-1.4069,-1.4101,-1.4101,-1.4145,-1.4151,-1.4166,-1.421,-1.4213,-1.4196,-1.4198,-1.4199,-1.42,0,0,0,0,0,0,0,-1.3921,-1.393,-1.4014,-1.4009,-1.4013,-1.4023,-1.4032,-1.4063,-1.4106,-1.4072,-1.4075,-1.4084,-1.4147,-1.4162,-1.4168,-1.4215,-1.4196,-1.4199,-1.4201,-1.4202,-1.4283,-1.4283,0,0,0,0,0,0,-1.3912,-1.3926,-1.4012,-1.4017,-1.3969,-1.4025,-1.4035,-1.4054,-1.4106,-1.4114,-1.4084,-1.4085,-1.4157,-1.4164,-1.4171,-1.42,-1.4199,-1.4202,-1.4204,-1.4283,-1.4283,-1.4283,0,0,0,0,0,0,-1.3909,-1.3919,-1.4009,-1.3972,-1.3985,-1.4027,-1.4048,-1.4055,-1.4071,-1.4115,-1.4123,-1.4092,-1.4157,-1.4166,-1.4198,-1.4203,-1.4204,-1.4207,-1.4282,-1.4283,-1.4283,-1.4257,0,0,0,0,0,0,-1.3906,-1.3918,-1.3926,-1.3972,-1.3986,-1.4034,-1.4048,-1.4057,-1.4076,-1.4079,-1.4124,-1.4132,-1.4158,-1.4193,-1.4201,-1.4207,-1.4209,-1.4282,-1.4283,-1.4283,-1.4257,-1.4256,-1.4255,0,0,0,0,0,-1.3902,-1.3914,-1.3926,-1.3936,-1.3997,-1.4034,-1.4042,-1.4072,-1.4077,-1.4085,-1.4114,-1.413,-1.4201,-1.4196,-1.4205,-1.4213,-1.4282,-1.4282,-1.4283,-1.4258,-1.4256,-1.4255,0,0,0,0,0,0,-1.3866,-1.3921,-1.3934,-1.3962,-1.3993,-1.404,-1.4052,-1.4069,-1.4099,-1.41,-1.4136,-1.4146,-1.4175,-1.4197,-1.419,-1.4237,-1.4243,-1.4246,-1.4221,-1.422,-1.4219,-1.4212,-1.4212,0,0,0,0,0,-1.3862,-1.3887,-1.3934,-1.3954,-1.3969,-1.4008,-1.4025,-1.4046,-1.4079,-1.4092,-1.4123,-1.4155,-1.4185,-1.4204,-1.4233,-1.4261,-1.4272,-1.4271,-1.427,-1.4269,-1.427,-1.4289,-1.4289,-1.4285,-1.4285,-1.4285,0,0,-1.3852,-1.3886,-1.3899,-1.3948,-1.3975,-1.4001,-1.4018,-1.4045,-1.4065,-1.4096,-1.4129,-1.4153,-1.4191,-1.4221,-1.4236,-1.4241,-1.4274,-1.4269,-1.4268,-1.427,-1.4289,-1.429,-1.429,-1.4285,-1.4285,-1.4285,0,0,-1.3849,-1.3877,-1.3897,-1.3924,-1.3965,-1.3991,-1.3996,-1.4041,-1.4059,-1.4092,-1.4116,-1.4141,-1.4191,-1.4218,-1.4238,-1.4249,-1.4266,-1.4258,-1.4251,-1.4269,-1.4269,-1.427,-1.4275,-1.4276,-1.4259,-1.4259,-1.4259,0,-1.3832,-1.3873,-1.3906,-1.3932,-1.3953,-1.3984,-1.4007,-1.4031,-1.4079,-1.4093,-1.4098,-1.4163,-1.4191,-1.4229,-1.4232,-1.4247,-1.4255,-1.4252,-1.4267,-1.4267,-1.4268,-1.4273,-1.4275,-1.4258,-1.4258,-1.4258,-1.4258,0,-1.3851,-1.3879,-1.3891,-1.3938,-1.3961,-1.3985,-1.4022,-1.4042,-1.4061,-1.4087,-1.4122,-1.4157,-1.4195,-1.4206,-1.4224,-1.4247,-1.4249,-1.426,-1.4267,-1.4267,-1.4272,-1.4274,-1.4256,-1.4257,-1.4257,-1.4257,0,0,-1.3825,-1.3892,-1.3896,-1.3919,-1.3967,-1.3989,-1.4016,-1.4054,-1.4071,-1.4103,-1.4127,-1.417,-1.4181,-1.4204,-1.4227,-1.4242,-1.425,-1.4251,-1.4253,-1.425,-1.4279,-1.4271,-1.4272,-1.4262,-1.4263,-1.4263,-1.4276,0,-1.3829,-1.3878,-1.3909,-1.3945,-1.3973,-1.4004,-1.4027,-1.406,-1.4086,-1.4113,-1.4142,-1.4172,-1.4184,-1.4198,-1.4215,-1.4245,-1.4256,-1.4245,-1.4285,-1.4286,-1.4274,-1.4275,-1.4266,-1.4276,-1.4278,-1.4279,-1.4279,0,-1.3839,-1.3873,-1.3912,-1.3959,-1.3972,-1.3992,-1.4031,-1.4057,-1.4095,-1.4113,-1.414,-1.4164,-1.4194,-1.42,-1.4243,-1.4235,-1.4253,-1.4271,-1.4273,-1.4277,-1.4282,-1.428,-1.428,-1.4282,-1.4282,-1.4282,-1.4282,0,-1.3818,-1.3872,-1.3903,-1.3922,-1.3978,-1.3992,-1.4016,-1.4054,-1.4076,-1.411,-1.4125,-1.4162,-1.4183,-1.4212,-1.4245,-1.4246,-1.4285,-1.4293,-1.4302,-1.4301,-1.4308,-1.4307,-1.4311,-1.432,-1.432,-1.432,-1.432,0,-1.3819,-1.3841,-1.3895,-1.3913,-1.3941,-1.3978,-1.4004,-1.4031,-1.4066,-1.4091,-1.4121,-1.4144,-1.4187,-1.4216,-1.4242,-1.4275,-1.4284,-1.43,-1.4306,-1.4297,-1.4295,-1.4309,-1.4309,-1.432,-1.432,-1.432,-1.432,0,-1.3798,-1.3835,-1.3871,-1.3922,-1.3936,-1.3953,-1.3998,-1.4018,-1.4046,-1.4078,-1.4088,-1.4133,-1.4169,-1.4205,-1.4254,-1.4272,-1.4304,-1.4313,-1.4291,-1.4294,-1.4301,-1.43,-1.4314,-1.4319,-1.4324,-1.4324,-1.4324,0,-1.3796,-1.3815,-1.3869,-1.3888,-1.3912,-1.3943,-1.3966,-1.4004,-1.4027,-1.4074,-1.4089,-1.4127,-1.416,-1.4216,-1.4253,-1.4291,-1.4302,-1.4304,-1.4307,-1.4298,-1.4303,-1.4301,-1.4304,-1.4303,-1.4302,-1.4302,-1.4302,0,-1.3789,-1.3807,-1.3839,-1.3878,-1.3905,-1.3938,-1.3971,-1.3985,-1.4031,-1.4055,-1.4093,-1.4118,-1.4169,-1.4207,-1.425,-1.4276,-1.4297,-1.4301,-1.4305,-1.4295,-1.4282,-1.429,-1.4287,-1.43,-1.43,-1.43,-1.4301,-1.4301,-1.3779,-1.3797,-1.3839,-1.3874,-1.3904,-1.3935,-1.3957,-1.399,-1.4022,-1.4066,-1.4087,-1.4125,-1.4166,-1.4226,-1.4251,-1.4282,-1.4288,-1.4293,-1.4295,-1.4296,-1.4294,-1.4277,-1.429,-1.429,-1.429,-1.429,-1.4291,0,-1.3774,-1.3803,-1.3835,-1.3882,-1.391,-1.3928,-1.3967,-1.399,-1.4023,-1.4059,-1.4092,-1.4136,-1.4174,-1.4215,-1.4256,-1.4273,-1.4284,-1.4282,-1.4281,-1.4287,-1.4286,-1.4279,-1.4273,-1.4273,-1.4273,-1.4273,-1.4273,-1.4273,-1.3774,-1.3808,-1.3831,-1.388,-1.3909,-1.3947,-1.3967,-1.3997,-1.4027,-1.4075,-1.4107,-1.4134,-1.4173,-1.4217,-1.4253,-1.4265,-1.4278,-1.4274,-1.4288,-1.4286,-1.4287,-1.4288,-1.4282,-1.4277,-1.4277,-1.4287,-1.4287,-1.4287]}]]